DECAYED

STARLINK-1631, 46151 (Decayed)

Orbit data source: Space-Track

STARLINK-1631, 46151 was a payload satellite owned by SpaceX/Seattle (US) in LEO that was launched on Tue, 18 Aug 2020 UTC via an FALCON 9 launch vehicle from the Air Force Eastern Test Range (AFETR). Payload-class satellites include a variety of spacecraft equipped with specific instruments for various scientific and technological missions. These include communications satellites like Starlink; space stations such as the ISS; scientific satellites like the Hubble; Earth observation satellites from companies like Planet Labs, Umbra, and HawkEye 360; GPS; miniature CubeSats for education and research; and military/defense satellites.

Not visible in the next 10 days
Identifier
46151, 2020-057AL
Orbit
Decayed
Country
Flag of USUS
Related business
Manufacturer
SpaceX/Seattle
Mission
Decayed Commercial Communications
Bus & Motor
STARLINK, Unknown motor
Mass
260 kg wet, ~248 kg dry
Launch date (UTC)
2020-08-18 (6 years ago)
Launch vehicle
FALCON 9
Launch site
Air Force Eastern Test Range (AFETR)
Object type
Payload
Rocket body
Debris
Shape & HBR
Box + 1 Pan, 10.1 m
Radar Cross Section
13.562 m², Large (>1 m²)

Expand to show TLE details & history
Last TLE update: 9 months ago

TLE from 9 months ago
0 STARLINK-1631
1 46151U 20057AL  25156.78219249  .17231246  12432-4  65173-3 0  9999
2 46151  53.0215  54.6051 0008650 259.7308 207.7575 16.43449201265896
Epoch: 2025-06-05T18:46Z
TLE epoch observation values (Epoch: 2025-06-05T18:46:21.431Z)
Latitude
49.80777°
Longitude
-3.82107°
Altitude
167.36 km
Speed
7.809 km/s
True Right ascension
11h 28m 51s
True Declination
49° 37' 22"
Sunlit
Object was in daylight at epoch
Visualization orbit readout
Latitude
Unknown
Longitude
Unknown
Altitude
Unknown
Speed
Unknown
Apparent Right ascension
Unknown
Apparent Declination
Unknown
Sunlit
N/A
Visualization observer readout
Local Sidereal Time
15:39:37
Azimuth
Unknown
Elevation
Unknown
Doppler factor
Unknown
Orbital elements
Apogee altitude
162.588 km
Perigee altitude
151.282 km
Semi-major axis
6,535.072 km
Eccentricity
0.00087
Inclination
53.0215°
RAAN
54.6051°
Arg. of periapsis
259.7308°
True anomaly
207.71138°
Mean anomaly
207.7575°
Eccentric anomaly
207.73444°
Mean motion
4.10835 °/min
Orbital period
87.63 mins
BSTAR
0.00065173
Loading maneuver chart data...
Computing Atmospheric mass density...

Documentation

Showing up to 5 results
|